Regional Weather Roundup
Issued by NWS Burlington, VT

Home | Current Version | Previous Version | Text Only | Print | Product List | Glossary On
Versions: 1 2 3 4 5 6 7 8 9 10 11 12 13 14 15 16 17 18 19 20 21 22 23 24 25 26 27 28 29 30 31 32 33 34 35 36 37 38 39 40 41 42 43 44 45 46 47 48 49 50
000
ASUS41 KBTV 291710
RWRBTV
VERMONT REGIONAL WEATHER ROUNDUP
NATIONAL WEATHER SERVICE BURLINGTON VT
100 PM EDT FRI AUG 29 2014

NOTE: "FAIR" INDICATES FEW OR NO CLOUDS BELOW 12,000 FEET WITH NO
SIGNIFICANT WEATHER AND/OR OBSTRUCTIONS TO VISIBILITY.

* THESE REPORTS ARE NOT UNDER NWS QUALITY CONTROL AND/OR DO NOT
  REPORT WEATHER SUCH AS PRECIPITATION AND FOG.

VTZ001>019-291800-
_____VERMONT_____


CITY           SKY/WX    TMP DP  RH WIND       PRES   REMARKS
BURLINGTON     PTSUNNY   71  55  56 N7        30.21F
MONTPELIER     PTSUNNY   66  51  58 CALM      30.24S
MORRISVILLE    PTSUNNY   69  52  54 CALM      30.21S
ST. JOHNSBURY*   N/A     71  52  50 MISG      30.17S
MIDDLEBURY*    FAIR      69  56  61 NW8       30.20F
RUTLAND*       CLOUDY    66  54  63 W5        30.20S
SPRINGFIELD    SUNNY     73  53  49 MISG      30.19S
HIGHGATE*      FAIR      66  55  66 NW5       30.21F
NEWPORT*       FAIR      65  52  62 CALM      30.22S
BENNINGTON     SUNNY     72  55  55 SW5       30.20S
SUTTON*          N/A     66 N/A N/A MISG        N/A

_____LAKE CHAMPLAIN_____


CITY           SKY/WX    TMP DP  RH WIND       PRES   REMARKS
COLCHESTER RF*   N/A     64  55  72 N3          N/A
DIAMOND ISL*     N/A     64  54  68 N9          N/A

$$

NYZ007-026>031-035-052-083-291800-
_____NORTHERN NEW YORK_____


CITY           SKY/WX    TMP DP  RH WIND       PRES   REMARKS
PLATTSBURGH    MOSUNNY   67  56  67 VRB5      30.21S
SARANAC LAKE   PTSUNNY   70  49  47 VRB3      30.20F
MASSENA        MOSUNNY   71  57  61 NW3       30.21S
OGDENSBURG*    SUNNY     73  57  56 W3        30.20S
POTSDAM*       MOSUNNY   70  57  64 CALM      30.20S
WATERTOWN      MOSUNNY   71  53  52 VRB3      30.20S
FT DRUM        MOSUNNY   71  52  49 NE1       30.19F
ALBANY         MOSUNNY   73  52  47 N8        30.20F
GLENS FALLS    MOSUNNY   70  55  59 SE5       30.20S

$$
NHZ002-005-011-291800-
_____NEW HAMPSHIRE_____


CITY           SKY/WX    TMP DP  RH WIND       PRES   REMARKS
LEBANON        PTSUNNY   73  51  46 VRB3      30.18S
KEENE          PTSUNNY   72  48  43 CALM      30.19S
MT WASHINGTON  PTSUNNY   50  43  76 SE1         N/A  VSB 1/2
PLYMOUTH       FAIR      73  57  58 CALM      30.16S
WHITEFIELD     SUNNY     71  52  50 VRB6      30.18F

$$

_____REGIONAL QUEBEC LOCATIONS_____


CITY           SKY/WX    TMP DP  RH WIND       PRES   REMARKS
MONTREAL       MOSUNNY   70  50  49 VRB8      30.20F
QUEBEC CITY    MOSUNNY   68  50  52 VRB2      30.20F
SHERBROOKE     SUNNY     66  45  45 VRB2      30.21S

_____REGIONAL ONTARIO LOCATIONS_____


CITY           SKY/WX    TMP DP  RH WIND       PRES   REMARKS
OTTAWA         MOSUNNY   68  54  60 CALM      30.20F

______KEY______
VSB  - VISIBILITY IN MILES
WCI  - WIND CHILL INDEX
HX   - HEAT INDEX
$$
NNNN



USA.gov is the U.S. government's official web portal to all federal, state and local government web resources and services.